CZ-4C DEB, 42671

Orbit data source: Space-Track

CZ-4C DEB, 42671 is space debris in SSO originally from a launch on Thu, 26 Nov 2015 UTC launched from the Taiyaun Space Center, China (TSC). Debris objects in space refer to the collection of defunct objects orbiting the Earth. Examples of debris include non-operational satellites, rocket bodies, and fragments generated from explosions, collisions, or faulty payload assembly.

Loading next visibility...
Identifier
42671, 2015-069D
Orbit
SSO
Country
Flag of CNCN / PRC
Related business
Manufacturer
Unknown
Mission
Spacecraft
Bus & Motor
Unknown
Mass
Unknown
Launch date (UTC)
2015-11-26 (10 years ago)
Launch vehicle
Unknown
Launch site
Taiyaun Space Center, China (TSC)
Object type
Payload
Rocket body
Debris
Shape & HBR
Unknown shape, 0.1 m
Radar Cross Section
Small (<0.1 m²)

Expand to show TLE details & history
Last TLE update: 7 hours ago

TLE from 7 hours ago
0 CZ-4C DEB
1 42671U 15069D   26037.07032328  .00007513  00000-0  97967-3 0  9991
2 42671  97.8024 262.6877 0116005  76.4359 284.9742 14.76161791537146
Epoch: 2026-02-06T01:41Z
TLE epoch observation values (Epoch: 2026-02-06T01:41:15.931Z)
Latitude
-0.00005°
Longitude
101.15785°
Altitude
624.326 km
Speed
7.557 km/s
True Right ascension
17h 30m 45s
True Declination
0° 00' 00"
Sunlit
Object was in daylight at epoch
Visualization orbit readout
Latitude
Unknown
Longitude
Unknown
Altitude
Unknown
Speed
Unknown
Apparent Right ascension
Unknown
Apparent Declination
Unknown
Sunlit
N/A
Visualization observer readout
Local Sidereal Time
10:58:17
Azimuth
Unknown
Elevation
Unknown
Doppler factor
Unknown
Orbital elements
Apogee altitude
719.903 km
Perigee altitude
557.11 km
Semi-major axis
7,016.644 km
Eccentricity
0.0116
Inclination
97.8024°
RAAN
262.6877°
Arg. of periapsis
76.4359°
True anomaly
283.6853°
Mean anomaly
284.9742°
Eccentric anomaly
284.33022°
Mean motion
3.69274 °/min
Orbital period
97.49 mins
BSTAR
0.00097967
Loading maneuver chart data...
Computing Atmospheric mass density...
Loading historical data...
Loading historical data...
Loading historical data...
Loading historical data...
Loading historical data...
Loading historical data...
Loading historical data...
Other satellites on launch #69 in the year 2015 (2015-11-26 UTC)

Documentation

Showing up to 5 results
|